Location: Madrid
(40.4167°N, 3.7036°W)
Time: 14:58:30
(UTC+00:00)

ISS - Pass Details

Date: 14 July 2024
Orbit: 410 x 424 km, 51.6° (Epoch: 14 July)

Event Time Altitude Azimuth Distance (km) Brightness Sun altitude
Rises 20:57:52 0° 275° (W) 2,335 0.9 -12.2°
Reaches altitude 10° 21:00:24 10° 294° (WNW) 1,475 0.3 -12.5°
Maximum altitude 21:02:48 18° 341° (NNW) 1,073 -0.8 -12.9°
Drops below altitude 10° 21:05:12 10° 28° (NNE) 1,479 -0.8 -13.2°
Sets 21:07:45 0° 48° (NE) 2,343 0.0 -13.5°
